Location: Sibbertoft
(52.4361°N, 1.0300°W)
Time: 02:47:38
(UTC+00:00)

OTV 5 (USA 277) - Visible Passes

Search period start: 20 January 2019 00:00
Search period end: 30 January 2019 00:00
Orbit: 339 x 349 km, 54.5° (Epoch: 15 January)

Date Brightness Start Highest point End Pass type
(mag) Time Alt. Az. Time Alt. Az. Time Alt. Az.
23 Jan ? 07:19:38 10° SSE 07:20:18 11° SE 07:20:57 10° ESE visible
25 Jan ? 06:32:24 10° SE 06:32:46 10° SE 06:33:06 10° SE visible
26 Jan ? 06:53:41 10° SSW 06:56:03 23° SE 06:58:27 10° E visible
27 Jan ? 07:16:41 10° SW 07:19:31 48° SSE 07:22:22 10° ENE visible
28 Jan ? 06:06:10 10° SSW 06:08:30 22° SE 06:10:52 10° E visible
29 Jan ? 06:29:08 10° SW 06:31:58 47° SSE 06:34:48 10° ENE visible
